Observations for Trim Patrick St
| Time | AQI | Temp °C | Hum % | Pres Pa | CO μg/m³ | H₂S μg/m³ | NO μg/m³ | NO₂ μg/m³ | O₃ μg/m³ | SO₂ μg/m³ | PM1 μg/m³ | PM2.5 μg/m³ | PM10 μg/m³ |
|---|---|---|---|---|---|---|---|---|---|---|---|---|---|
| Monday 3 August 2026 | |||||||||||||
| 08:43 | 2 | 20.8 | 68 | 38,460 | 0.13 | 0 | 2 | 12.15 | 40.67 | 0.92 | 5.43 | 9.61 | 10.58 |
| 08:42 | 2 | 20.7 | 70 | 38,460 | 0.12 | 0 | 2.54 | 12.07 | 44.85 | 0.87 | 5.43 | 9.5 | 10.45 |
| 08:41 | 2 | 20.6 | 71 | 38,460 | 0.11 | 0 | 1.87 | 12 | 40.04 | 1.13 | 6.29 | 10.11 | 11.13 |
| 08:40 | 2 | 20.5 | 71 | 38,460 | 0.1 | 1.93 | 1.13 | 19.39 | 53.53 | 1.82 | 4.57 | 8.7 | 9.57 |
| 08:38 | 2 | 20.3 | 69 | 38,460 | 0.11 | 0 | 1.18 | 14.54 | 45.8 | 0.72 | 5.43 | 9.52 | 10.48 |
| 08:37 | 2 | 20.2 | 69 | 38,460 | 0.11 | 0 | 1.01 | 13.31 | 45.39 | 1.41 | 5.43 | 9.55 | 10.51 |
| 08:36 | 2 | 20.2 | 69 | 38,460 | 0.1 | 0 | 1.23 | 12.21 | 41.18 | 1.55 | 5.43 | 10.28 | 11.31 |
| 08:35 | 2 | 20.2 | 70 | 38,460 | 0.1 | 0 | 1.56 | 12.27 | 41.38 | 1.29 | 3.71 | 8.07 | 8.88 |
| 08:34 | 2 | 20.1 | 69 | 38,460 | 0.12 | 0 | 1.08 | 12.48 | 44.79 | 0.04 | 5.43 | 10.25 | 11.27 |
| 08:33 | 2 | 20.1 | 69 | 38,460 | 0.12 | 0 | 1.21 | 15.41 | 44.37 | 0.31 | 5.43 | 10.25 | 11.27 |
| 08:32 | 2 | 20 | 69 | 38,460 | 0.11 | 0 | 1.3 | 11.76 | 35.78 | 0.89 | 4.57 | 9.55 | 10.51 |
| 08:31 | 2 | 20 | 69 | 38,460 | 0.11 | 0 | 1.26 | 13.69 | 43.48 | 0.74 | 7.14 | 10.98 | 12.07 |
| 08:30 | 2 | 20 | 69 | 38,460 | 0.11 | 0 | 1.33 | 11.95 | 40.11 | 1.07 | 6.29 | 10.25 | 11.28 |
| 08:29 | 2 | 19.9 | 70 | 38,460 | 0.13 | 0 | 1.65 | 12.41 | 44.1 | 0.47 | 5.43 | 10.96 | 12.06 |
| 08:28 | 2 | 19.9 | 70 | 38,460 | 0.12 | 0 | 2.02 | 13.79 | 41.8 | 0.7 | 6.29 | 10.96 | 12.06 |
| 08:26 | 2 | 19.9 | 70 | 38,460 | 0.14 | 0 | 1.76 | 13.75 | 46.84 | 0.3 | 5.43 | 9.48 | 10.43 |
| 08:24 | 2 | 19.8 | 70 | 38,460 | 0.13 | 0 | 1.44 | 12.59 | 40.67 | 0 | 5.43 | 10.94 | 12.04 |
| 08:22 | 2 | 19.8 | 70 | 38,460 | 0.14 | 0 | 2.12 | 14.08 | 43.87 | 0.46 | 5.43 | 9.46 | 10.4 |
| 08:21 | 2 | 19.8 | 70 | 38,460 | 0.14 | 0 | 2.56 | 13.51 | 42.7 | 0 | 4.57 | 8.76 | 9.63 |
| 08:20 | 2 | 19.7 | 70 | 38,460 | 0.14 | 0 | 2.17 | 15.41 | 44.45 | 0.28 | 5.43 | 9.46 | 10.4 |